Home   Weather   Whitby   Past weeks

Flag for Canada Past Weather in Whitby, Ontario, Canada — Yesterday and Last 2 Weeks

Now
25 °F

Snow flurries. Ice fog.


Feels Like: 15 °F
Forecast: 25 / 29 °F
Wind: 9 mph from Northwest

Location: Toronto Buttonville

Current Time: Dec 9, 2016 at 12:56:26 am

Latest Report: Dec 9, 2016 at 12:00 am


Visibility: 1 mi

Pressure: 30.06 "Hg

Humidity: 86%

Dew Point: 21 °F

Location of WhitbyLocation

Past Weather in Whitby — Graph

°F

Whitby Temperature Yesterday

Maximum temperature yesterday: 32 °F (at 8:00 am)
Minimum temperature yesterday: 27 °F (at 11:00 pm)
Average temperature yesterday: 30 °F

High & Low Weather Summary for the Past Weeks

 TemperatureHumidityPressure
High57 °F (Nov 29, 2:00 pm)100% (Nov 24, 2:00 am)30.30 "Hg (Nov 24, 2:00 am)
Low27 °F (Dec 8, 11:00 pm)55% (Dec 8, 9:00 am)29.43 "Hg (Nov 30, 10:00 pm)
Average38 °F82%29.96 "Hg
* Reported Nov 23 11:00 pm — Dec 8 11:00 pm, Whitby, Weather by CustomWeather, © 2016

Note: Actual official high and low records may vary slightly from our data, if they occured in-between our weather recording intervals... More about our weather records

Advertising

Whitby Weather History for the Previous 24 Hours

Scroll right to see more
 ConditionsComfort  
Time TempWeatherWind HumidityBarometerVisibility
11:00 pm
Thu, Dec 8
27 °FSnow flurries. Passing clouds.8 mph80%30.03 "Hg10 mi
10:00 pm28 °FSnow flurries. Ice fog.12 mph80%30.01 "Hg1 mi
9:00 pm28 °FSnow flurries. Overcast.8 mph86%29.98 "Hg8 mi
8:00 pm28 °FSnow flurries. Ice fog.12 mph80%29.97 "Hg1 mi
7:00 pm28 °FLight mixture of precip. Passing clouds.12 mph74%29.96 "Hg10 mi
6:00 pm28 °FPassing clouds.12 mph74%29.95 "Hg15 mi
5:00 pm28 °FPassing clouds.15 mph69%29.94 "Hg15 mi
4:45 pm30 °FPassing clouds.12 mph64%29.94 "Hg15 mi
4:00 pm30 °FLight snow. Partly sunny.8 mph59%29.93 "Hg14 mi
3:00 pm30 °FBroken clouds.13 mph55%29.93 "Hg15 mi
2:00 pm30 °FBroken clouds.14 mph55%29.91 "Hg15 mi
1:00 pm30 °FPartly sunny.18 mph55%29.92 "Hg12 mi
12:00 pm30 °FSnow flurries. Overcast.10 mph55%29.92 "Hg14 mi
11:00 am30 °FSnow flurries. More clouds than sun.20 mph59%29.93 "Hg14 mi
10:00 am30 °FSnow flurries. Mostly cloudy.15 mph64%29.93 "Hg11 mi
9:00 am32 °FSnow flurries. Mostly cloudy.14 mph55%29.91 "Hg14 mi
8:52 am32 °FSnow flurries. Mostly cloudy.9 mph60%29.91 "Hg14 mi
8:00 am32 °FSnow flurries. Mostly cloudy.8 mph69%29.89 "Hg13 mi
7:00 am30 °FPassing clouds.5 mph75%29.89 "Hg12 mi
6:00 am30 °FLight snow. Overcast.10 mph75%29.88 "Hg15 mi
5:00 am30 °FLight snow. Passing clouds.8 mph80%29.88 "Hg12 mi
4:55 am30 °FLight snow. Passing clouds.6 mph80%29.89 "Hg12 mi
4:00 am30 °FPassing clouds.9 mph80%29.89 "Hg15 mi
3:00 am30 °FPassing clouds.5 mph80%29.90 "Hg15 mi
2:00 am30 °FPassing clouds.8 mph80%29.91 "Hg15 mi
1:00 am30 °FPassing clouds.7 mph80%29.92 "Hg12 mi
12:00 am30 °FPassing clouds.6 mph80%29.92 "Hg12 mi
Weather by CustomWeather, © 2016

See weather overviewHow to use our weather pages